SONATE
1 44400U 19038Q   25144.53317505  .00190492  00000-0  74741-3 0  9999
2 44400  97.6897 169.4435 0002626 235.8950 124.2071 15.86447670327029
Taurus 1
1 44530U 19059C   25144.82073294  .00005023  00000-0  93241-3 0  9993
2 44530  98.6049 283.4696 0010546  90.3801 269.8609 14.65648373301639
Duchifat 3
1 44854U 19089C   25144.21920067  .00035653  00000-0  73050-3 0  9995
2 44854  36.9427  99.1109 0003398 220.4790 139.5713 15.45151831300415
TO-108
1 44881U 19093C   25144.86621249  .00000780  00000-0  96323-4 0  9993
2 44881  97.7926 220.8443 0012358 284.6495  75.3350 14.85568093293744
FloripaSat 1
1 44885U 19093G   25144.72108509  .00004856  00000-0  41288-3 0  9998
2 44885  97.8159 232.2897 0008759 251.4782 108.5489 14.98292968294379
RS-44
1 44909U 19096E   25144.37070858 -.00000002  00000-0 -47475-4 0  9990
2 44909  82.5224 238.0456 0216854 333.7565  25.2673 12.79740575252615
UPMSat 2
1 46276U 20061E   25144.60032322  .00053116  00000-0  50808-3 0  9998
2 46276  97.2453 218.4703 0001727 162.9262 197.2057 15.66550650262962
SALSAT
1 46495U 20068K   25144.44945222  .00005420  00000-0  23684-3 0  9999
2 46495  97.8590 121.7366 0010311 210.3250 149.7389 15.22515293256079
CubeSX-Sirius-HSE
1 47951U 21022V   25144.42228227  .00485850  96661-4  13053-2 0  9994
2 47951  97.4108  57.4353 0005133 126.1684 234.0066 15.94378764231285
CubeSX-HSE
1 47952U 21022W   25144.68392525  .00467326  89919-4  12193-2 0  9996
2 47952  97.4148  57.9931 0004541 135.3727 224.7914 15.94935236231347
GRBAlpha
1 47959U 21022AD  25144.36950015  .00409582  66604-4  12213-2 0  9991
2 47959  97.4137  57.6998 0004445 126.5375 233.6309 15.92388060230112
TUBIN
1 48900U 21059X   25144.81447830  .00039294  00000-0  50285-3 0  9999
2 48900  97.6737 312.7783 0002518 273.8805  86.2163 15.59113808217582
LEDSAT
1 49069U 21073D   25144.78005078  .00052237  00000-0  67801-3 0  9996
2 49069  97.3905 225.6823 0011420 138.5939 221.6184 15.58600430208979
CUTE
1 49263U 21088D   25144.18306518  .00012161  00000-0  24821-3 0  9992
2 49263  97.4520 219.9701 0006578 302.8825  57.1791 15.46321245201899
TeikyoSat 4
1 49396U 21102B   25144.82088748  .00001374  00000-0  94209-4 0  9991
2 49396  97.4111 183.8182 0012477 179.8737 180.2496 15.07571164194179
Z-Sat
1 49399U 21102E   25144.89227785  .00003121  00000-0  17346-3 0  9995
2 49399  97.3811 186.8864 0019047 153.7982 206.4218 15.14267653194605
KOSEN 1
1 49402U 21102H   25144.67561889  .00006081  00000-0  28384-3 0  9994
2 49402  97.3718 189.9720 0017465 131.5842 228.6893 15.20061022194875
HO-113
1 50466U 21131B   25144.85779768  .00000465  00000-0  15902-3 0  9997
2 50466  98.5095 234.2884 0004477 167.3670 192.7632 14.40794131179182
IRIS-A
1 51044U 22002BN  25144.74063019  .00475198  99736-4  93538-3 0  9999
2 51044  97.3160 225.0449 0008033 229.8212 130.2364 16.00023994187377
Foresail-1
1 52766U 22057AL  25144.83900187  .00216368  18887-4  78881-3 0  9991
2 52766  97.6030 294.9940 0005568 263.2559  96.8079 15.88420953167396
SNUGLITE 2
1 52899U 22065F   25144.41978324  .00001019  00000-0  20723-3 0  9990
2 52899  98.1666 286.5530 0008217 155.8128 204.3462 14.63172655154122
UmKA 1 (RS40S)
1 57172U 23091G   25144.89012835  .00004948  00000-0  26658-3 0  9994
2 57172  97.5594 200.3549 0015129  35.1584 325.0643 15.15175907105101
CubeBel-2 (EU11S)
1 57175U 23091K   25144.89425288  .00008702  00000-0  41819-3 0  9995
2 57175  97.5594 201.4115 0013041  44.4370 315.7908 15.18995506105177
VERONIKA
1 58261U 23174F   25144.82448751  .00101922  00000-0  98479-3 0  9999
2 58261  97.4133 230.1045 0004907 135.3865 224.7790 15.66113343 86218
ENSO
1 58470U 23185J   25144.87131217  .00044851  00000-0  68844-3 0  9994
2 58470  97.3750 219.5061 0008912 139.9039 220.2873 15.54117946 82596
EIRSAT-1
1 58472U 23185L   25144.86029540  .00076462  00000-0  79781-3 0  9995
2 58472  97.3709 221.1418 0007095 147.9006 212.2686 15.64242257 82702
SONATE-2
1 59112U 24043Q   25144.33310452  .00013165  00000-0  38645-3 0  9993
2 59112  97.5109 275.1941 0011914 167.3081 192.8464 15.35214318 67844
MO-122
1 60209U 24125G   25144.54642022  .00014545  00000-0  42080-3 0  9998
2 60209  97.2815 356.3506 0018886 189.9742 170.1130 15.35529361 49499
GRBBeta
1 60237U 24128C   25144.49802415  .00003678  00000-0  28397-3 0  9990
2 60237  61.9896 135.6233 0050751  53.7808 306.7958 15.02469526 47785
Curium One
1 60242U 24128H   25144.69332068  .00006548  00000-0  46287-3 0  9997
2 60242  61.9793 133.4626 0050710  49.5669 310.9829 15.04830203 47849
ROBUSTA-3A
1 60243U 24128J   25144.42521769  .00004709  00000-0  34188-3 0  9991
2 60243  61.9863 135.1750 0049374  47.2405 313.2824 15.04376518 47791
CatSat
1 60246U 24125J   25144.53937796  .00009217  00000-0  31068-3 0  9997
2 60246  97.2606 355.7378 0043915 149.5798 210.8005 15.30004507 47533
HYPERVIEW-1G (RS66S)
1 61772U 24199AP  25144.90209569  .00016566  00000-0  49109-3 0  9994
2 61772  97.3562  13.7992 0012040 244.3994 115.6005 15.34843849 74558
AO-123
1 61781U 24199AY  25144.86569534  .00005361  00000-0  19757-3 0  9997
2 61781  97.3574  12.8116 0014128 251.4687 108.5018 15.28148873 74481
ZIMSAT 2
1 61783U 24199BA  25144.87456081  .00028298  00000-0  71884-3 0  9995
2 61783  97.3541  14.2715 0012034 240.2719 119.7329 15.39532745 77731
HADES-R (SO-124)
1 62690U 25009CK  25144.44074436  .00027628  00000-0  10112-2 0  9999
2 62690  97.4101 225.3231 0004791 146.6029 213.5513 15.27999697 19682
HYDRA-T
1 62692U 25009CM  25144.16681754  .00028886  00000-0  10503-2 0  9998
2 62692  97.4098 225.0779 0004529 144.1220 216.0324 15.28208162 19643
JINJUSat 1B
1 63210U 25052A   25144.66913756  .00008908  00000-0  41312-3 0  9994
2 63210  97.4446  38.9967 0005366  40.2087 319.9544 15.20275122 10835
NUSHSAT 1
1 63211U 25052B   25144.46877539  .00009960  00000-0  45906-3 0  9993
2 63211  97.4435  38.7972 0005583  45.1019 315.0669 15.20454574 10800
TEVEL2-4
1 63213U 25052D   25144.67679146  .00009236  00000-0  42939-3 0  9991
2 63213  97.4351  38.9040 0005129  60.1094 300.0650 15.20180539 10837
TEVEL2-5
1 63214U 25052E   25144.67720166  .00009147  00000-0  42549-3 0  9999
2 63214  97.4352  38.9037 0005132  60.1765 299.9979 15.20164988 10834
TEVEL2-6
1 63215U 25052F   25144.41561276  .00009015  00000-0  41994-3 0  9994
2 63215  97.4352  38.6427 0005260  61.1989 298.9773 15.20119534 10799
TEVEL2-1
1 63217U 25052H   25144.22691516  .00009173  00000-0  42982-3 0  9999
2 63217  97.4332  38.4146 0005661  70.0049 290.1795 15.19907948 10763
TEVEL2-2
1 63218U 25052J   25144.62222174  .00009166  00000-0  42945-3 0  9995
2 63218  97.4329  38.8037 0005675  69.9036 290.2809 15.19912939 10821
TEVEL2-3
1 63219U 25052K   25144.62229188  .00009194  00000-0  43081-3 0  9991
2 63219  97.4329  38.8035 0005668  69.7243 290.4601 15.19908770 10820
TEVEL2-8
1 63237U 25052AD  25144.21400725  .00008760  00000-0  42465-3 0  9997
2 63237  97.4391  38.3369 0010308  76.0335 284.2045 15.18710208 10755
TEVEL2-9
1 63238U 25052AE  25144.67697031  .00008665  00000-0  42064-3 0  9995
2 63238  97.4397  38.7900 0010371  74.2939 285.9439 15.18664509 10822
TEVEL2-7
1 63239U 25052AF  25144.67856173  .00008687  00000-0  42210-3 0  9997
2 63239  97.4393  38.7870 0010362  74.8126 285.4253 15.18630102 10820
HYDRA-W
1 63490U 25052BL  25144.24926621  .00021562  00000-0  93361-3 0  9995
2 63490  97.4344  38.5512 0014460  73.7763 286.5064 15.22334840 10775
HADES-ICM
1 63492U 25052BN  25143.66821070  .00020742  00000-0  90901-3 0  9990
2 63492  97.4348  37.9563 0014734  78.2617 282.0271 15.21928463 10682
